TimeEDT,TemperatureF,Dew PointF,Humidity,Sea Level PressureIn,VisibilityMPH,Wind Direction,Wind SpeedMPH,Gust SpeedMPH,PrecipitationIn,Events,Conditions,WindDirDegrees,DateUTC
12:15 AM,33.8,23.4,66,30.15,10.0,Calm,Calm,-,N/A,,Clear,0,2013-03-27 04:15:00
12:35 AM,33.4,23.2,66,30.15,10.0,WNW,3.5,-,N/A,,Clear,300,2013-03-27 04:35:00
12:55 AM,33.1,23.2,67,30.16,10.0,Calm,Calm,-,N/A,,Clear,0,2013-03-27 04:55:00
1:15 AM,32.5,23.4,69,30.15,10.0,WNW,3.5,-,N/A,,Clear,290,2013-03-27 05:15:00
1:35 AM,32.2,23.2,69,30.16,10.0,Calm,Calm,-,N/A,,Clear,0,2013-03-27 05:35:00
1:55 AM,32.0,23.0,69,30.16,10.0,Calm,Calm,-,N/A,,Clear,0,2013-03-27 05:55:00
2:15 AM,32.4,23.0,68,30.16,10.0,Calm,Calm,-,N/A,,Clear,0,2013-03-27 06:15:00
2:35 AM,31.3,23.0,71,30.16,10.0,Calm,Calm,-,N/A,,Clear,0,2013-03-27 06:35:00
2:55 AM,31.6,23.4,71,30.16,10.0,Calm,Calm,-,N/A,,Clear,0,2013-03-27 06:55:00
3:15 AM,31.5,23.4,72,30.15,10.0,Calm,Calm,-,N/A,,Clear,0,2013-03-27 07:15:00
3:35 AM,30.4,23.5,76,30.15,10.0,WNW,3.5,-,N/A,,Clear,300,2013-03-27 07:35:00
3:55 AM,31.5,23.4,72,30.15,10.0,Calm,Calm,-,N/A,,Clear,0,2013-03-27 07:55:00
4:15 AM,30.6,23.0,74,30.15,10.0,Calm,Calm,-,N/A,,Clear,0,2013-03-27 08:15:00
4:35 AM,29.8,23.2,76,30.15,10.0,Calm,Calm,-,N/A,,Clear,0,2013-03-27 08:35:00
4:55 AM,30.0,23.4,76,30.16,10.0,Calm,Calm,-,N/A,,Clear,0,2013-03-27 08:55:00
5:15 AM,29.3,23.2,78,30.16,10.0,Calm,Calm,-,N/A,,Clear,0,2013-03-27 09:15:00
5:35 AM,29.3,23.5,79,30.16,10.0,Calm,Calm,-,N/A,,Scattered Clouds,0,2013-03-27 09:35:00
5:55 AM,30.2,23.7,77,30.16,10.0,Calm,Calm,-,N/A,,Scattered Clouds,0,2013-03-27 09:55:00
6:15 AM,31.6,23.9,73,30.18,10.0,WNW,3.5,-,N/A,,Scattered Clouds,290,2013-03-27 10:15:00
6:35 AM,31.1,23.9,75,30.18,10.0,Calm,Calm,-,N/A,,Scattered Clouds,0,2013-03-27 10:35:00
6:55 AM,30.2,23.5,76,30.19,10.0,Calm,Calm,-,N/A,,Clear,0,2013-03-27 10:55:00
7:15 AM,29.5,23.2,77,30.20,10.0,Calm,Calm,-,N/A,,Clear,0,2013-03-27 11:15:00
7:35 AM,29.7,23.0,76,30.20,10.0,Calm,Calm,-,N/A,,Scattered Clouds,0,2013-03-27 11:35:00
7:55 AM,30.6,23.4,75,30.21,10.0,Calm,Calm,-,N/A,,Clear,0,2013-03-27 11:55:00
8:15 AM,32.2,24.1,72,30.21,10.0,Calm,Calm,-,N/A,,Clear,0,2013-03-27 12:15:00
8:35 AM,34.9,23.7,64,30.22,10.0,Calm,Calm,-,N/A,,Scattered Clouds,0,2013-03-27 12:35:00
8:55 AM,36.7,22.8,57,30.22,10.0,West,4.6,-,N/A,,Scattered Clouds,280,2013-03-27 12:55:00
9:15 AM,37.9,22.3,53,30.22,10.0,NW,3.5,-,N/A,,Clear,320,2013-03-27 13:15:00
9:35 AM,38.8,21.7,50,30.23,10.0,West,5.8,-,N/A,,Clear,280,2013-03-27 13:35:00
9:55 AM,39.9,21.2,47,30.23,10.0,NW,5.8,-,N/A,,Clear,310,2013-03-27 13:55:00
10:15 AM,40.8,20.3,44,30.23,10.0,NW,3.5,-,N/A,,Clear,320,2013-03-27 14:15:00
10:35 AM,41.4,20.5,43,30.23,10.0,North,5.8,19.6,N/A,,Clear,350,2013-03-27 14:35:00
10:55 AM,41.9,20.1,42,30.23,10.0,NNW,6.9,-,N/A,,Clear,330,2013-03-27 14:55:00
11:15 AM,42.8,20.5,41,30.23,10.0,NNW,6.9,-,N/A,,Clear,330,2013-03-27 15:15:00
11:35 AM,43.0,20.5,41,30.23,10.0,North,9.2,-,N/A,,Clear,350,2013-03-27 15:35:00
11:55 AM,43.5,20.7,40,30.23,10.0,NW,4.6,-,N/A,,Clear,310,2013-03-27 15:55:00
12:15 PM,42.8,20.3,41,30.23,10.0,NW,5.8,-,N/A,,Clear,320,2013-03-27 16:15:00
12:35 PM,44.8,21.4,40,30.23,10.0,NW,6.9,-,N/A,,Clear,310,2013-03-27 16:35:00
12:55 PM,45.7,21.4,38,30.23,10.0,North,8.1,-,N/A,,Clear,350,2013-03-27 16:55:00
1:15 PM,46.2,21.7,38,30.23,10.0,WNW,6.9,16.1,N/A,,Clear,290,2013-03-27 17:15:00
1:35 PM,43.9,20.8,40,30.22,10.0,NW,6.9,-,N/A,,Clear,320,2013-03-27 17:35:00
1:55 PM,45.3,21.4,39,30.21,10.0,West,6.9,-,N/A,,Clear,280,2013-03-27 17:55:00
2:15 PM,47.7,21.9,36,30.21,10.0,NW,9.2,-,N/A,,Clear,310,2013-03-27 18:15:00
2:35 PM,47.1,21.0,36,30.21,10.0,NW,6.9,18.4,N/A,,Clear,310,2013-03-27 18:35:00
2:55 PM,46.0,21.2,37,30.20,10.0,WNW,6.9,-,N/A,,Clear,290,2013-03-27 18:55:00
3:15 PM,45.0,20.1,37,30.20,10.0,NW,8.1,-,N/A,,Clear,310,2013-03-27 19:15:00
3:35 PM,46.9,20.7,35,30.20,10.0,NW,9.2,20.7,N/A,,Clear,320,2013-03-27 19:35:00
3:55 PM,47.5,20.7,35,30.19,10.0,WNW,8.1,19.6,N/A,,Clear,290,2013-03-27 19:55:00
4:15 PM,47.5,20.7,35,30.18,10.0,WNW,10.4,20.7,N/A,,Clear,300,2013-03-27 20:15:00
4:35 PM,47.3,20.8,35,30.18,10.0,NW,9.2,16.1,N/A,,Clear,310,2013-03-27 20:35:00
4:55 PM,48.0,20.8,34,30.18,10.0,West,9.2,16.1,N/A,,Clear,280,2013-03-27 20:55:00
5:15 PM,47.5,20.3,34,30.18,10.0,NNW,8.1,-,N/A,,Clear,330,2013-03-27 21:15:00
5:35 PM,47.1,20.3,35,30.18,10.0,West,5.8,-,N/A,,Clear,280,2013-03-27 21:35:00
5:55 PM,46.6,20.5,36,30.18,10.0,North,5.8,-,N/A,,Clear,350,2013-03-27 21:55:00
6:15 PM,47.1,20.8,35,30.19,10.0,WNW,3.5,-,N/A,,Clear,300,2013-03-27 22:15:00
6:35 PM,46.2,20.5,36,30.19,10.0,NW,9.2,-,N/A,,Clear,320,2013-03-27 22:35:00
6:55 PM,45.3,20.3,37,30.20,10.0,WNW,4.6,-,N/A,,Clear,300,2013-03-27 22:55:00
7:15 PM,43.7,19.6,38,30.20,10.0,NNW,5.8,-,N/A,,Clear,330,2013-03-27 23:15:00
7:35 PM,42.8,19.8,40,30.21,10.0,Calm,Calm,-,N/A,,Clear,0,2013-03-27 23:35:00
7:55 PM,41.9,19.8,41,30.22,10.0,Calm,Calm,-,N/A,,Clear,0,2013-03-27 23:55:00
8:15 PM,40.8,20.1,44,30.22,10.0,Calm,Calm,-,N/A,,Clear,0,2013-03-28 00:15:00
8:35 PM,40.3,20.3,45,30.23,10.0,Calm,Calm,-,N/A,,Clear,0,2013-03-28 00:35:00
8:55 PM,39.2,20.7,47,30.23,10.0,Calm,Calm,-,N/A,,Clear,0,2013-03-28 00:55:00
9:15 PM,38.3,20.3,48,30.23,10.0,Calm,Calm,-,N/A,,Clear,0,2013-03-28 01:15:00
9:35 PM,37.2,20.7,51,30.24,10.0,Calm,Calm,-,N/A,,Clear,0,2013-03-28 01:35:00
9:55 PM,36.9,20.8,52,30.24,10.0,Calm,Calm,-,N/A,,Clear,0,2013-03-28 01:55:00
10:15 PM,36.0,20.7,54,30.24,10.0,Calm,Calm,-,N/A,,Clear,0,2013-03-28 02:15:00
10:35 PM,37.2,19.9,50,30.24,10.0,Calm,Calm,-,N/A,,Clear,0,2013-03-28 02:35:00
10:55 PM,35.8,19.8,52,30.24,10.0,Calm,Calm,-,N/A,,Clear,0,2013-03-28 02:55:00
11:15 PM,34.3,20.3,57,30.25,10.0,Calm,Calm,-,N/A,,Clear,0,2013-03-28 03:15:00
11:35 PM,33.8,20.3,58,30.25,10.0,Calm,Calm,-,N/A,,Clear,0,2013-03-28 03:35:00
11:55 PM,33.4,20.7,59,30.25,10.0,Calm,Calm,-,N/A,,Clear,0,2013-03-28 03:55:00